Home   Weather   Moncton   Past weeks
Flag for Canada

Past Weather in Moncton, New Brunswick, Canada — Yesterday and Last 2 Weeks

Now
64 °F

Passing clouds.


Feels Like: 64 °F
Forecast: 78 / 61 °F
Wind: 2 mph from West

Location: Moncton

Current Time: Jul 21, 2019 at 10:55:06 pm

Latest Report: Jul 21, 2019 at 10:00 pm


Visibility: 15 mi

Pressure: 29.68 "Hg

Humidity: 100%

Dew Point: 64 °F

Location of MonctonLocation

Past Weather in Moncton — Graph

°F

Moncton Temperature Yesterday

Maximum temperature yesterday: 90 °F (at 5:00 pm)
Minimum temperature yesterday: 63 °F (at 3:00 am)
Average temperature yesterday: 76 °F

High & Low Weather Summary for the Past Weeks

 TemperatureHumidityPressure
High90 °F (Jul 20, 5:00 pm)100% (Jul 6, 9:00 pm)30.12 "Hg (Jul 6, 9:00 pm)
Low46 °F (Jul 11, 6:00 am)32% (Jul 8, 2:00 pm)29.57 "Hg (Jul 21, 3:00 am)
Average67 °F78%29.82 "Hg
* Reported Jul 6 9:00 pm — Jul 21 9:00 pm, Moncton. Weather by CustomWeather, © 2019

Note: Actual official high and low records may vary slightly from our data, if they occured in-between our weather recording intervals... More about our weather records

Advertising

Moncton Weather History for the Previous 24 Hours

Scroll right to see more
 ConditionsComfort  
Time TempWeatherWind HumidityBarometerVisibility
9:00 pm
Sun, Jul 21
66 °FBroken clouds.No wind100%29.67 "Hg15 mi
8:00 pm66 °FPartly sunny.7 mph100%29.66 "Hg15 mi
7:43 pm68 °FSprinkles. Mostly cloudy.9 mph100%29.66 "Hg15 mi
7:17 pm68 °FSprinkles. Mostly cloudy.7 mph100%29.65 "Hg15 mi
7:00 pm68 °FCloudy.8 mph100%29.64 "Hg15 mi
6:21 pm68 °FBroken clouds.10 mph100%29.63 "Hg8 mi
6:00 pm68 °FLight rain. Mostly cloudy.8 mph100%29.62 "Hg10 mi
5:35 pm70 °FMore clouds than sun.7 mph100%29.62 "Hg12 mi
5:00 pm70 °FLight rain. Partly sunny.7 mph100%29.60 "Hg10 mi
4:03 pm70 °FLight rain. Mostly cloudy.8 mph100%29.59 "Hg10 mi
3:55 pm70 °FLight rain. Cloudy.8 mph100%29.59 "Hg12 mi
3:00 pm68 °FRain. Mostly cloudy.5 mph100%29.60 "Hg12 mi
2:57 pm68 °FRain. Mostly cloudy.6 mph100%29.60 "Hg12 mi
2:00 pm70 °FLight rain. Partly sunny.7 mph100%29.62 "Hg12 mi
1:00 pm70 °FLight rain. Partly sunny.7 mph100%29.62 "Hg12 mi
12:00 pm73 °FPartly sunny.9 mph89%29.62 "Hg15 mi
11:00 am77 °FPartly sunny.6 mph79%29.62 "Hg15 mi
10:00 am77 °FPartly sunny.5 mph79%29.63 "Hg15 mi
9:00 am75 °FBroken clouds.6 mph83%29.62 "Hg15 mi
8:00 am73 °FPartly sunny.3 mph89%29.62 "Hg15 mi
7:00 am72 °FScattered clouds.5 mph100%29.62 "Hg15 mi
6:00 am72 °FPartly sunny.6 mph94%29.59 "Hg15 mi
5:00 am73 °FPartly cloudy.7 mph83%29.59 "Hg15 mi
4:00 am72 °FPassing clouds.8 mph88%29.57 "Hg15 mi
3:00 am70 °FPartly cloudy.9 mph83%29.57 "Hg15 mi
2:00 am70 °FPartly cloudy.6 mph78%29.58 "Hg15 mi
1:00 am70 °FPassing clouds.6 mph78%29.58 "Hg15 mi
12:00 am72 °FPassing clouds.9 mph73%29.60 "Hg15 mi
11:00 pm
Sat, Jul 20
75 °FPassing clouds.8 mph65%29.62 "Hg15 mi
10:00 pm77 °FPassing clouds.9 mph65%29.64 "Hg15 mi
Weather by CustomWeather, © 2019

See weather overview